パンスターズ彗星

P/2019 S2 ( PanSTARRS )

English version
Home page
Updated on October 5, 2019

---------------------------------------------------------------------

・ プロフィール

発見日 2019年9月28日
発見光度 21.6等
発見者 Pan-STARRS 1 telescope (Haleakala)

・ 軌道要素

Epoch 2019 Feb. 6.0 TT = JDT 2458520.5                                          
T 2019 Feb. 20.25584 TT                                 Veres                   
q   3.7548341            (2000.0)            P               Q                  
n   0.09567505     Peri.  216.65390     +0.62990109     +0.75516942             
a   4.7344578      Node    93.12538     -0.66243109     +0.64437341             
e   0.2069136      Incl.   10.47314     -0.40547462     +0.12042447             
P  10.3                                                                         
From 29 observations 2019 July 10-Oct. 4, mean residual 0".5.                   

・ 光度変化

        m1 = 12.0 + 5 logΔ + 10.0 log r

---------------------------------------------------------------------

軌道要素はM.P.E.C. 2019-T80に掲載されたものです。
光度グラフはComet for Windowsで作成したものです。

---------------------------------------------------------------------

Copyright(C) Seiichi Yoshida (comet@aerith.net). All rights reserved.